| time (UTC) | temp F | wind direction | speed MPH | gust MPH | rain 1hr in | rain 24hr in | rain mn in | humidity % | barometer mb |
| 20260503001503 | 60 | 360 | 4.0 | 6.0 | 0.00 | 0.70 | 0.70 | 92 | 1013.8 |
| 20260503001003 | 60 | 351 | 2.0 | 6.0 | 0.00 | 0.70 | 0.70 | 92 | 1013.8 |
| 20260503000507 | 60 | 16 | 4.0 | 7.0 | 0.00 | 0.70 | 0.70 | 92 | 1013.6 |
| 20260503000002 | 60 | 350 | 3.0 | 7.0 | 0.00 | 0.70 | 0.70 | 92 | 1013.6 |
| 20260502235502 | 60 | 5 | 5.0 | 7.0 | 0.00 | 0.70 | 0.70 | 92 | 1013.6 |
| 20260502235002 | 60 | 356 | 5.0 | 8.0 | 0.00 | 0.70 | 0.70 | 92 | 1013.5 |
| 20260502234503 | 60 | 356 | 5.0 | 11.0 | 0.00 | 0.70 | 0.70 | 92 | 1013.5 |
| 20260502234004 | 60 | 360 | 5.0 | 11.0 | 0.00 | 0.70 | 0.70 | 92 | 1013.4 |
| 20260502233503 | 60 | 357 | 6.0 | 11.0 | 0.00 | 0.70 | 0.70 | 92 | 1013.4 |
| 20260502233004 | 60 | 343 | 8.0 | 12.0 | 0.00 | 0.70 | 0.70 | 92 | 1013.5 |
| 20260502232503 | 60 | 345 | 7.0 | 17.0 | 0.00 | 0.70 | 0.70 | 92 | 1013.5 |
| 20260502232003 | 60 | 360 | 11.0 | 17.0 | 0.01 | 0.70 | 0.70 | 92 | 1013.2 |
| 20260502231505 | 61 | 359 | 6.0 | 11.0 | 0.01 | 0.70 | 0.70 | 92 | 1013.2 |
| 20260502231004 | 61 | 344 | 7.0 | 11.0 | 0.01 | 0.70 | 0.70 | 92 | 1013.1 |
| 20260502230502 | 61 | 354 | 6.0 | 9.0 | 0.01 | 0.70 | 0.70 | 92 | 1013.1 |
| 20260502230011 | 61 | 347 | 5.0 | 12.0 | 0.01 | 0.70 | 0.70 | 92 | 1013.1 |
| 20260502225503 | 61 | 359 | 7.0 | 12.0 | 0.01 | 0.70 | 0.70 | 92 | 1012.9 |
| 20260502225003 | 61 | 360 | 6.0 | 12.0 | 0.01 | 0.70 | 0.70 | 92 | 1013.0 |
| 20260502223503 | 61 | 345 | 6.0 | 9.0 | 0.01 | 0.70 | 0.70 | 92 | 1012.7 |
| 20260502223007 | 61 | 344 | 5.0 | 9.0 | 0.01 | 0.70 | 0.70 | 92 | 1012.6 |
| 20260502222503 | 61 | 326 | 5.0 | 9.0 | 0.01 | 0.70 | 0.70 | 1012.6 | |
| 20260502221505 | 61 | 335 | 5.0 | 11.0 | 0.00 | 0.69 | 0.69 | 92 | 1012.4 |
| 20260502221003 | 61 | 4 | 7.0 | 11.0 | 0.00 | 0.69 | 0.69 | 92 | 1012.1 |
| 20260502220504 | 61 | 5 | 6.0 | 11.0 | 0.00 | 0.69 | 0.69 | 92 | 1012.1 |
| 20260502220013 | 62 | 337 | 6.0 | 11.0 | 0.00 | 0.69 | 0.69 | 92 | 1012.1 |
| 20260502215507 | 62 | 1 | 8.0 | 11.0 | 0.00 | 0.69 | 0.69 | 92 | 1011.9 |
| 20260502215006 | 62 | 342 | 7.0 | 11.0 | 0.00 | 0.69 | 0.69 | 92 | 1011.8 |
| 20260502214509 | 62 | 11 | 6.0 | 11.0 | 0.00 | 0.69 | 0.69 | 92 | 1011.7 |
| 20260502214003 | 62 | 359 | 7.0 | 11.0 | 0.00 | 0.69 | 0.69 | 92 | 1011.6 |
| 20260502213504 | 62 | 335 | 6.0 | 13.0 | 0.01 | 0.69 | 0.69 | 92 | 1011.5 |
| 20260502211504 | 62 | 323 | 7.0 | 12.0 | 0.01 | 0.69 | 0.69 | 91 | 1011.4 |
| 20260502211003 | 62 | 349 | 8.0 | 14.0 | 0.01 | 0.69 | 0.69 | 92 | 1011.6 |
| 20260502210506 | 63 | 338 | 7.0 | 14.0 | 0.01 | 0.69 | 0.69 | 92 | 1011.6 |
| 20260502205504 | 63 | 326 | 7.0 | 14.0 | 0.01 | 0.69 | 0.69 | 92 | 1011.5 |
| 20260502205008 | 63 | 327 | 7.0 | 14.0 | 0.01 | 0.69 | 0.69 | 91 | 1011.4 |
| 20260502204512 | 64 | 304 | 11.0 | 15.0 | 0.01 | 0.69 | 0.69 | 91 | 1011.4 |
| 20260502204006 | 65 | 326 | 9.0 | 15.0 | 0.01 | 0.69 | 0.69 | 91 | 1011.1 |
| 20260502203506 | 65 | 329 | 9.0 | 14.0 | 0.01 | 0.68 | 0.68 | 91 | 1011.1 |
| 20260502203016 | 66 | 317 | 4.0 | 8.0 | 0.01 | 0.68 | 0.68 | 92 | 1011.1 |
| 20260502202507 | 66 | 311 | 5.0 | 8.0 | 0.01 | 0.68 | 0.68 | 91 | 1010.9 |
| 20260502202002 | 66 | 310 | 4.0 | 6.0 | 0.01 | 0.68 | 0.68 | 92 | 1010.9 |
| 20260502200503 | 66 | 309 | 4.0 | 5.0 | 0.01 | 0.68 | 0.68 | 92 | 1010.7 |
| 20260502200015 | 66 | 359 | 3.0 | 4.0 | 0.02 | 0.68 | 0.68 | 92 | 1010.7 |
| 20260502195503 | 66 | 305 | 2.0 | 4.0 | 0.02 | 0.68 | 0.68 | 92 | 1010.7 |
| 20260502195003 | 65 | 337 | 1.0 | 5.0 | 0.02 | 0.68 | 0.68 | 92 | 1010.7 |
| 20260502194509 | 65 | 308 | 3.0 | 6.0 | 0.02 | 0.68 | 0.68 | 92 | 1010.9 |
| 20260502193505 | 65 | 339 | 3.0 | 5.0 | 0.02 | 0.67 | 0.67 | 92 | 1011.1 |
| 20260502193015 | 65 | 315 | 3.0 | 6.0 | 0.02 | 0.67 | 0.67 | 92 | 1011.0 |
| 20260502192505 | 65 | 359 | 4.0 | 8.0 | 0.02 | 0.67 | 0.67 | 92 | 1010.9 |
| 20260502192008 | 65 | 311 | 4.0 | 8.0 | 0.03 | 0.67 | 0.67 | 92 | 1011.1 |
| 20260502191519 | 65 | 319 | 4.0 | 9.0 | 0.03 | 0.67 | 0.67 | 92 | 1011.2 |
| 20260502191007 | 65 | 316 | 6.0 | 9.0 | 0.03 | 0.67 | 0.67 | 92 | 1011.1 |
| 20260502190504 | 65 | 325 | 5.0 | 8.0 | 0.03 | 0.67 | 0.67 | 92 | 1011.2 |
| 20260502190016 | 65 | 359 | 5.0 | 8.0 | 0.03 | 0.66 | 0.66 | 93 | 1011.2 |
| 20260502185004 | 65 | 335 | 5.0 | 7.0 | 0.03 | 0.66 | 0.66 | 93 | 1011.1 |
| 20260502184510 | 65 | 357 | 3.0 | 5.0 | 0.04 | 0.66 | 0.66 | 93 | 1011.0 |
| 20260502184007 | 64 | 340 | 3.0 | 4.0 | 0.04 | 0.66 | 0.66 | 93 | 1011.0 |
| 20260502183507 | 64 | 359 | 2.0 | 4.0 | 0.04 | 0.65 | 0.65 | 93 | 1010.9 |
| 20260502182507 | 64 | 293 | 3.0 | 7.0 | 0.04 | 0.65 | 0.65 | 93 | 1011.3 |
| 20260502182007 | 64 | 317 | 4.0 | 8.0 | 0.04 | 0.64 | 0.64 | 93 | 1011.2 |
| 20260502181006 | 64 | 359 | 3.0 | 5.0 | 0.04 | 0.64 | 0.64 | 93 | 1010.9 |
| 20260502180507 | 64 | 9 | 2.0 | 4.0 | 0.05 | 0.64 | 0.64 | 93 | 1010.8 |
| 20260502170507 | 63 | 55 | 1.0 | 5.0 | 0.07 | 0.58 | 0.58 | 93 | 1011.2 |
| 20260502163504 | 63 | 16 | 2.0 | 8.0 | 0.09 | 0.56 | 0.56 | 93 | 1011.4 |
| 20260502162504 | 62 | 360 | 6.0 | 8.0 | 0.09 | 0.55 | 0.55 | 93 | 1011.6 |
| 20260502162002 | 63 | 347 | 5.0 | 11.0 | 0.10 | 0.55 | 0.55 | 93 | 1011.6 |
| 20260502161502 | 63 | 359 | 5.0 | 11.0 | 0.10 | 0.54 | 0.54 | 93 | 1011.8 |
| 20260502161003 | 63 | 309 | 6.0 | 8.0 | 0.09 | 0.52 | 0.52 | 93 | 1011.8 |
| 20260502160510 | 62 | 345 | 4.0 | 6.0 | 0.09 | 0.52 | 0.52 | 94 | 1011.7 |
| 20260502151512 | 62 | 228 | 2.0 | 4.0 | 0.25 | 0.44 | 0.44 | 93 | 1011.4 |
| 20260502151002 | 62 | 32 | 2.0 | 4.0 | 0.27 | 0.44 | 0.44 | 93 | 1011.2 |
| 20260502150502 | 62 | 152 | 2.0 | 4.0 | 0.28 | 0.43 | 0.43 | 93 | 1011.6 |
| 20260502123508 | 63 | 1 | 7.0 | 10.0 | 0.00 | 0.00 | 0.00 | 88 | 1011.2 |
| 20260502123002 | 63 | 359 | 6.0 | 8.0 | 0.00 | 0.00 | 0.00 | 88 | 1011.9 |
| 20260502122502 | 63 | 352 | 5.0 | 8.0 | 0.00 | 0.00 | 0.00 | 1012.1 | |
| 20260502121530 | 62 | 337 | 5.0 | 10.0 | 0.00 | 0.00 | 0.00 | 88 | 1012.0 |
| 20260502120505 | 62 | 346 | 3.0 | 6.0 | 0.00 | 0.00 | 0.00 | 88 | 1011.7 |
| 20260502115510 | 62 | 326 | 4.0 | 6.0 | 0.00 | 0.00 | 0.00 | 87 | 1011.2 |
| 20260502114516 | 62 | 345 | 3.0 | 6.0 | 0.00 | 0.00 | 0.00 | 86 | 1011.1 |
| 20260502114008 | 62 | 345 | 4.0 | 5.0 | 0.00 | 0.00 | 0.00 | 86 | 1010.9 |
| 20260502113508 | 62 | 354 | 4.0 | 5.0 | 0.00 | 0.00 | 0.00 | 86 | 1011.0 |
| 20260502105007 | 62 | 298 | 3.0 | 4.0 | 0.00 | 0.00 | 0.00 | 85 | 1011.2 |
| 20260502104011 | 62 | 343 | 2.0 | 3.0 | 0.00 | 0.00 | 0.00 | 85 | 1010.9 |
| 20260502103022 | 62 | 359 | 1.0 | 3.0 | 0.00 | 0.00 | 0.00 | 84 | 1010.5 |
| 20260502102508 | 62 | 1 | 1.0 | 3.0 | 0.00 | 0.00 | 0.00 | 84 | 1010.5 |
| 20260502102003 | 62 | 1 | 2.0 | 4.0 | 0.00 | 0.00 | 0.00 | 84 | 1010.6 |
| 20260502101507 | 62 | 314 | 2.0 | 5.0 | 0.00 | 0.00 | 0.00 | 84 | 1010.7 |
| 20260502101008 | 62 | 330 | 3.0 | 4.0 | 0.00 | 0.00 | 0.00 | 85 | 1010.7 |
| 20260502100502 | 62 | 321 | 2.0 | 4.0 | 0.00 | 0.00 | 0.00 | 84 | 1010.5 |
| 20260502091504 | 63 | 3 | 2.0 | 2.0 | 0.00 | 0.00 | 0.00 | 82 | 1010.5 |
| 20260502091004 | 63 | 355 | 1.0 | 4.0 | 0.00 | 0.00 | 0.00 | 81 | 1010.3 |
| 20260502090504 | 63 | 315 | 2.0 | 5.0 | 0.00 | 0.00 | 0.00 | 81 | 1010.4 |
| 20260502071003 | 65 | 342 | 3.0 | 6.0 | 0.00 | 0.00 | 0.00 | 80 | 1012.5 |
| 20260502070503 | 65 | 359 | 4.0 | 6.0 | 0.00 | 0.00 | 0.00 | 80 | 1012.5 |
| 20260502070007 | 65 | 347 | 4.0 | 6.0 | 0.00 | 0.00 | 0.00 | 79 | 1012.5 |
| 20260502065504 | 65 | 356 | 4.0 | 5.0 | 0.00 | 0.00 | 0.00 | 80 | 1012.7 |
| 20260502065011 | 65 | 340 | 3.0 | 5.0 | 0.00 | 0.00 | 0.00 | 80 | 1012.7 |
| 20260502064520 | 65 | 340 | 3.0 | 6.0 | 0.00 | 0.00 | 0.00 | 80 | 1012.7 |
| 20260502064004 | 65 | 352 | 4.0 | 6.0 | 0.00 | 0.00 | 0.00 | 80 | 1012.5 |
| 20260502063511 | 65 | 335 | 4.0 | 5.0 | 0.00 | 0.00 | 0.00 | 80 | 1012.4 |
| 20260502063032 | 65 | 359 | 3.0 | 5.0 | 0.00 | 0.00 | 0.00 | 80 | 1012.3 |
| 20260502062508 | 65 | 335 | 3.0 | 3.0 | 0.00 | 0.00 | 0.00 | 81 | 1012.5 |
| 20260502062009 | 65 | 341 | 2.0 | 3.0 | 0.00 | 0.00 | 0.00 | 81 | 1012.5 |
| 20260502061519 | 65 | 345 | 2.0 | 2.0 | 0.00 | 0.00 | 0.00 | 80 | 1012.6 |
| 20260502060508 | 65 | 75 | 0.0 | 2.0 | 0.00 | 0.00 | 0.00 | 79 | 1012.5 |
| 20260502060037 | 65 | 75 | 0.0 | 2.0 | 0.00 | 0.00 | 0.00 | 79 | 1012.6 |
| 20260502055505 | 65 | 54 | 0.0 | 2.0 | 0.00 | 0.00 | 0.00 | 79 | 1012.5 |
| 20260502055004 | 65 | 70 | 1.0 | 3.0 | 0.00 | 0.00 | 0.00 | 79 | 1012.4 |
| 20260502054005 | 66 | 352 | 2.0 | 3.0 | 0.00 | 0.00 | 0.00 | 79 | 1012.7 |
| 20260502053504 | 66 | 336 | 1.0 | 2.0 | 0.00 | 0.00 | 0.00 | 79 | 1012.7 |
| 20260502053016 | 66 | 324 | 2.0 | 4.0 | 0.00 | 0.00 | 0.00 | 79 | 1012.9 |
| 20260502052509 | 66 | 360 | 2.0 | 4.0 | 0.00 | 0.00 | 0.00 | 79 | 1012.6 |
| 20260502052011 | 66 | 352 | 3.0 | 3.0 | 0.00 | 0.00 | 0.00 | 79 | 1012.8 |
| 20260502051524 | 66 | 360 | 2.0 | 6.0 | 0.00 | 0.00 | 0.00 | 79 | 1012.9 |
| 20260502051010 | 66 | 347 | 2.0 | 6.0 | 0.00 | 0.00 | 0.00 | 79 | 1013.0 |
| 20260502050506 | 66 | 360 | 2.0 | 3.0 | 0.00 | 0.00 | 0.00 | 78 | 1012.8 |
| 20260502050021 | 66 | 356 | 2.0 | 3.0 | 0.00 | 0.00 | 0.00 | 78 | 1012.9 |
| 20260502045509 | 66 | 9 | 2.0 | 3.0 | 0.00 | 0.00 | 0.00 | 78 | 1012.8 |
| 20260502045015 | 66 | 3 | 2.0 | 4.0 | 0.00 | 0.00 | 0.00 | 78 | 1013.0 |
| 20260502044004 | 66 | 360 | 3.0 | 4.0 | 0.00 | 0.00 | 0.00 | 79 | 1013.2 |
| 20260502043504 | 67 | 356 | 3.0 | 4.0 | 0.00 | 0.00 | 0.00 | 79 | 1013.1 |
| 20260502042504 | 67 | 360 | 2.0 | 3.0 | 0.00 | 0.00 | 0.00 | 78 | 1013.1 |
| 20260502042002 | 67 | 25 | 1.0 | 4.0 | 0.00 | 0.00 | 0.00 | 77 | 1013.2 |
| 20260502041528 | 67 | 1 | 3.0 | 4.0 | 0.00 | 0.00 | 0.00 | 77 | 1013.3 |
| 20260502035003 | 67 | 223 | 1.0 | 2.0 | 0.00 | 0.00 | 0.00 | 76 | 1013.3 |
| 20260502034005 | 67 | 53 | 0.0 | 2.0 | 0.00 | 0.00 | 0.00 | 76 | 1013.2 |
| 20260502032504 | 67 | 76 | 0.0 | 2.0 | 0.00 | 0.00 | 0.00 | 76 | 1013.0 |
| 20260502032008 | 67 | 18 | 1.0 | 2.0 | 0.00 | 0.00 | 0.00 | 76 | 1013.1 |
| 20260502031502 | 67 | 252 | 0.0 | 2.0 | 0.00 | 0.00 | 0.00 | 76 | 1013.2 |
| 20260502031002 | 67 | 257 | 1.0 | 3.0 | 0.00 | 0.00 | 0.00 | 75 | 1013.5 |
| 20260502030022 | 67 | 65 | 3.0 | 6.0 | 0.00 | 0.00 | 0.00 | 75 | 1012.2 |
| 20260502025007 | 68 | 360 | 3.0 | 4.0 | 0.00 | 0.00 | 0.00 | 74 | 1013.0 |
| 20260502024003 | 68 | 25 | 2.0 | 6.0 | 0.00 | 0.00 | 0.00 | 73 | 1013.2 |
| 20260502022005 | 68 | 18 | 2.0 | 5.0 | 0.00 | 0.00 | 0.00 | 74 | 1013.2 |
| 20260502021008 | 69 | 89 | 1.0 | 4.0 | 0.00 | 0.00 | 0.00 | 74 | 1013.5 |
| 20260502020004 | 69 | 8 | 1.0 | 4.0 | 0.00 | 0.00 | 0.00 | 75 | 1013.3 |
| 20260502014505 | 69 | 360 | 3.0 | 8.0 | 0.00 | 0.00 | 0.00 | 74 | 1013.5 |
| 20260502014003 | 69 | 333 | 4.0 | 8.0 | 0.00 | 0.00 | 0.00 | 74 | 1013.2 |
| 20260502010508 | 70 | 8 | 6.0 | 9.0 | 0.00 | 0.00 | 0.00 | 71 | 1012.7 |
| 20260502010016 | 70 | 39 | 5.0 | 9.0 | 0.00 | 0.00 | 0.00 | 70 | 1012.7 |
| 20260502005506 | 71 | 16 | 3.0 | 8.0 | 0.00 | 0.00 | 0.00 | 69 | 1012.7 |
| 20260502004504 | 71 | 42 | 4.0 | 5.0 | 0.00 | 0.00 | 0.00 | 68 | 1013.2 |
| 20260502003008 | 71 | 16 | 2.0 | 7.0 | 0.00 | 0.00 | 0.00 | 66 | 1013.1 |